| time (UTC) | temp F | wind direction | speed MPH | gust MPH | rain 1hr in | rain 24hr in | rain mn in | humidity % | barometer mb |
| 20260504000431 | 59 | 49 | 0.0 | 0.0 | 0.00 | 0.00 | 0.00 | 80 | 1017.4 |
| 20260503235937 | 59 | 49 | 0.0 | 0.0 | 0.00 | 0.00 | 0.00 | 79 | 1017.4 |
| 20260503235431 | 59 | 49 | 0.0 | 0.0 | 0.00 | 0.00 | 0.00 | 79 | 1017.5 |
| 20260503234934 | 59 | 49 | 0.0 | 0.0 | 0.00 | 0.00 | 0.00 | 79 | 1017.5 |
| 20260503234429 | 60 | 49 | 0.0 | 0.0 | 0.00 | 0.00 | 0.00 | 79 | 1017.5 |
| 20260503233944 | 60 | 49 | 0.0 | 0.0 | 0.00 | 0.00 | 0.00 | 78 | 1017.5 |
| 20260503233432 | 60 | 49 | 0.0 | 0.0 | 0.00 | 0.00 | 0.00 | 78 | 1017.5 |
| 20260503232929 | 60 | 49 | 0.0 | 0.0 | 0.00 | 0.00 | 0.00 | 78 | 1017.5 |
| 20260503232439 | 60 | 49 | 0.0 | 0.0 | 0.00 | 0.00 | 0.00 | 78 | 1017.5 |
| 20260503231937 | 60 | 49 | 0.0 | 0.0 | 0.00 | 0.00 | 0.00 | 78 | 1017.6 |
| 20260503231454 | 60 | 49 | 0.0 | 0.0 | 0.00 | 0.00 | 0.00 | 79 | 1017.6 |
| 20260503230939 | 60 | 49 | 0.0 | 1.0 | 0.00 | 0.00 | 0.00 | 78 | 1017.5 |
| 20260503230454 | 60 | 49 | 0.0 | 1.0 | 0.00 | 0.00 | 0.00 | 78 | 1017.6 |
| 20260503225944 | 60 | 49 | 0.0 | 0.0 | 0.00 | 0.00 | 0.00 | 78 | 1017.6 |
| 20260503225439 | 60 | 49 | 0.0 | 0.0 | 0.00 | 0.00 | 0.00 | 78 | 1017.7 |
| 20260503224948 | 60 | 49 | 0.0 | 0.0 | 0.00 | 0.00 | 0.00 | 78 | 1017.6 |
| 20260503224504 | 60 | 49 | 0.0 | 0.0 | 0.00 | 0.00 | 0.00 | 78 | 1017.7 |
| 20260503224000 | 60 | 49 | 0.0 | 0.0 | 0.00 | 0.00 | 0.00 | 78 | 1017.7 |
| 20260503223434 | 61 | 49 | 0.0 | 1.0 | 0.00 | 0.00 | 0.00 | 78 | 1017.7 |
| 20260503222945 | 61 | 49 | 0.0 | 1.0 | 0.00 | 0.00 | 0.00 | 78 | 1017.7 |
| 20260503222439 | 61 | 49 | 0.0 | 0.0 | 0.00 | 0.00 | 0.00 | 77 | 1017.7 |
| 20260503221955 | 61 | 49 | 0.0 | 0.0 | 0.00 | 0.00 | 0.00 | 77 | 1017.7 |
| 20260503221503 | 61 | 49 | 0.0 | 0.0 | 0.00 | 0.00 | 0.00 | 77 | 1017.7 |
| 20260503220940 | 61 | 49 | 0.0 | 0.0 | 0.00 | 0.00 | 0.00 | 77 | 1017.6 |
| 20260503220457 | 61 | 49 | 0.0 | 0.0 | 0.00 | 0.00 | 0.00 | 77 | 1017.6 |
| 20260503215942 | 61 | 49 | 0.0 | 0.0 | 0.00 | 0.00 | 0.00 | 77 | 1017.6 |
| 20260503215438 | 62 | 49 | 0.0 | 0.0 | 0.00 | 0.00 | 0.00 | 76 | 1017.6 |
| 20260503214947 | 62 | 49 | 0.0 | 2.0 | 0.00 | 0.00 | 0.00 | 76 | 1017.6 |
| 20260503214435 | 62 | 49 | 0.0 | 2.0 | 0.00 | 0.00 | 0.00 | 76 | 1017.5 |
| 20260503213930 | 62 | 52 | 1.0 | 2.0 | 0.00 | 0.00 | 0.00 | 75 | 1017.5 |
| 20260503213444 | 62 | 30 | 0.0 | 4.0 | 0.00 | 0.00 | 0.00 | 74 | 1017.5 |
| 20260503212952 | 63 | 30 | 1.0 | 4.0 | 0.00 | 0.00 | 0.00 | 74 | 1017.6 |
| 20260503212447 | 63 | 60 | 2.0 | 3.0 | 0.00 | 0.00 | 0.00 | 73 | 1017.5 |
| 20260503211942 | 64 | 53 | 2.0 | 3.0 | 0.00 | 0.00 | 0.00 | 71 | 1017.5 |
| 20260503211432 | 64 | 94 | 1.0 | 2.0 | 0.00 | 0.00 | 0.00 | 70 | 1017.5 |
| 20260503210948 | 64 | 94 | 0.0 | 1.0 | 0.00 | 0.00 | 0.00 | 70 | 1017.4 |
| 20260503210444 | 65 | 94 | 0.0 | 2.0 | 0.00 | 0.00 | 0.00 | 69 | 1017.4 |
| 20260503205940 | 65 | 94 | 1.0 | 3.0 | 0.00 | 0.00 | 0.00 | 69 | 1017.4 |
| 20260503205447 | 65 | 94 | 0.0 | 4.0 | 0.00 | 0.00 | 0.00 | 68 | 1017.4 |
| 20260503204942 | 65 | 94 | 1.0 | 4.0 | 0.00 | 0.00 | 0.00 | 68 | 1017.3 |
| 20260503204431 | 65 | 140 | 2.0 | 3.0 | 0.00 | 0.00 | 0.00 | 68 | 1017.3 |
| 20260503203928 | 65 | 140 | 1.0 | 3.0 | 0.00 | 0.00 | 0.00 | 68 | 1017.3 |
| 20260503203436 | 66 | 144 | 0.0 | 1.0 | 0.00 | 0.00 | 0.00 | 67 | 1017.3 |
| 20260503202932 | 66 | 145 | 0.0 | 1.0 | 0.00 | 0.00 | 0.00 | 66 | 1017.3 |
| 20260503202448 | 66 | 145 | 0.0 | 2.0 | 0.00 | 0.00 | 0.00 | 65 | 1017.3 |
| 20260503201937 | 66 | 145 | 1.0 | 3.0 | 0.00 | 0.00 | 0.00 | 65 | 1017.2 |
| 20260503201432 | 67 | 144 | 1.0 | 4.0 | 0.00 | 0.00 | 0.00 | 65 | 1017.1 |
| 20260503200941 | 67 | 133 | 1.0 | 4.0 | 0.00 | 0.00 | 0.00 | 65 | 1017.2 |
| 20260503200436 | 67 | 153 | 2.0 | 5.0 | 0.00 | 0.00 | 0.00 | 64 | 1017.1 |
| 20260503195947 | 67 | 126 | 2.0 | 8.0 | 0.00 | 0.00 | 0.00 | 64 | 1017.1 |
| 20260503195436 | 67 | 134 | 2.0 | 6.0 | 0.00 | 0.00 | 0.00 | 64 | 1017.1 |
| 20260503195007 | 67 | 135 | 2.0 | 7.0 | 0.00 | 0.00 | 0.00 | 64 | 1017.1 |
| 20260503194442 | 68 | 124 | 2.0 | 7.0 | 0.00 | 0.00 | 0.00 | 63 | 1017.0 |
| 20260503193930 | 68 | 136 | 2.0 | 8.0 | 0.00 | 0.00 | 0.00 | 63 | 1017.0 |
| 20260503193511 | 68 | 138 | 2.0 | 8.0 | 0.00 | 0.00 | 0.00 | 63 | 1016.9 |
| 20260503192938 | 68 | 140 | 2.0 | 8.0 | 0.00 | 0.00 | 0.00 | 63 | 1016.9 |
| 20260503192432 | 68 | 147 | 3.0 | 8.0 | 0.00 | 0.00 | 0.00 | 63 | 1016.9 |
| 20260503191947 | 69 | 148 | 4.0 | 8.0 | 0.00 | 0.00 | 0.00 | 63 | 1016.9 |
| 20260503191441 | 69 | 143 | 4.0 | 8.0 | 0.00 | 0.00 | 0.00 | 63 | 1016.9 |
| 20260503190930 | 69 | 173 | 3.0 | 8.0 | 0.00 | 0.00 | 0.00 | 63 | 1016.9 |
| 20260503190445 | 69 | 151 | 2.0 | 6.0 | 0.00 | 0.00 | 0.00 | 62 | 1016.8 |
| 20260503185942 | 70 | 155 | 2.0 | 7.0 | 0.00 | 0.00 | 0.00 | 62 | 1016.7 |
| 20260503185428 | 70 | 152 | 3.0 | 9.0 | 0.00 | 0.00 | 0.00 | 61 | 1016.7 |
| 20260503184943 | 70 | 118 | 2.0 | 9.0 | 0.00 | 0.00 | 0.00 | 60 | 1016.6 |
| 20260503184428 | 70 | 145 | 3.0 | 10.0 | 0.00 | 0.00 | 0.00 | 60 | 1016.6 |
| 20260503183942 | 71 | 132 | 3.0 | 10.0 | 0.00 | 0.00 | 0.00 | 59 | 1016.5 |
| 20260503183438 | 71 | 113 | 2.0 | 7.0 | 0.00 | 0.00 | 0.00 | 58 | 1016.5 |
| 20260503182945 | 71 | 149 | 4.0 | 7.0 | 0.00 | 0.00 | 0.00 | 57 | 1016.5 |
| 20260503182434 | 72 | 125 | 2.0 | 8.0 | 0.00 | 0.00 | 0.00 | 56 | 1016.4 |
| 20260503181951 | 72 | 136 | 4.0 | 8.0 | 0.00 | 0.00 | 0.00 | 55 | 1016.4 |
| 20260503181440 | 72 | 167 | 2.0 | 8.0 | 0.00 | 0.00 | 0.00 | 54 | 1016.4 |
| 20260503180937 | 72 | 145 | 3.0 | 7.0 | 0.00 | 0.00 | 0.00 | 53 | 1016.4 |
| 20260503180454 | 73 | 119 | 1.0 | 7.0 | 0.00 | 0.00 | 0.00 | 53 | 1016.3 |
| 20260503175940 | 73 | 134 | 3.0 | 7.0 | 0.00 | 0.00 | 0.00 | 52 | 1016.3 |
| 20260503175435 | 73 | 138 | 2.0 | 7.0 | 0.00 | 0.00 | 0.00 | 52 | 1016.3 |
| 20260503174954 | 73 | 146 | 2.0 | 8.0 | 0.00 | 0.00 | 0.00 | 51 | 1016.4 |
| 20260503174443 | 74 | 143 | 2.0 | 8.0 | 0.00 | 0.00 | 0.00 | 51 | 1016.3 |
| 20260503173931 | 74 | 133 | 2.0 | 8.0 | 0.00 | 0.00 | 0.00 | 50 | 1016.3 |
| 20260503173448 | 74 | 135 | 2.0 | 8.0 | 0.00 | 0.00 | 0.00 | 49 | 1016.3 |
| 20260503172944 | 74 | 103 | 3.0 | 9.0 | 0.00 | 0.00 | 0.00 | 49 | 1016.1 |
| 20260503172432 | 75 | 68 | 4.0 | 12.0 | 0.00 | 0.00 | 0.00 | 48 | 1016.2 |
| 20260503171950 | 75 | 138 | 6.0 | 12.0 | 0.00 | 0.00 | 0.00 | 48 | 1016.2 |
| 20260503171445 | 75 | 85 | 5.0 | 12.0 | 0.00 | 0.00 | 0.00 | 47 | 1016.2 |
| 20260503170934 | 76 | 130 | 2.0 | 11.0 | 0.00 | 0.00 | 0.00 | 47 | 1016.1 |
| 20260503170444 | 76 | 153 | 4.0 | 11.0 | 0.00 | 0.00 | 0.00 | 46 | 1016.0 |
| 20260503150939 | 79 | 234 | 5.0 | 8.0 | 0.00 | 0.00 | 0.00 | 35 | 1017.0 |
| 20260503150428 | 79 | 207 | 4.0 | 9.0 | 0.00 | 0.00 | 0.00 | 35 | 1017.0 |
| 20260503131015 | 81 | 287 | 4.0 | 9.0 | 0.00 | 0.00 | 0.00 | 31 | 1017.7 |
| 20260503130442 | 81 | 243 | 3.0 | 8.0 | 0.00 | 0.00 | 0.00 | 33 | 1017.7 |
| 20260503110442 | 79 | 155 | 2.0 | 5.0 | 0.00 | 0.00 | 0.00 | 38 | 1018.6 |
| 20260503090439 | 74 | 160 | 0.0 | 4.0 | 0.00 | 0.00 | 0.00 | 44 | 1019.5 |
| 20260503081447 | 70 | 34 | 0.0 | 1.0 | 0.00 | 0.00 | 0.00 | 54 | 1019.8 |
| 20260503081003 | 69 | 342 | 0.0 | 0.0 | 0.00 | 0.00 | 0.00 | 54 | 1019.8 |
| 20260503080432 | 68 | 336 | 0.0 | 0.0 | 0.00 | 0.00 | 0.00 | 57 | 1019.8 |
| 20260503072938 | 65 | 12 | 2.0 | 4.0 | 0.00 | 0.00 | 0.00 | 63 | 1020.1 |
| 20260503072454 | 64 | 329 | 1.0 | 4.0 | 0.00 | 0.00 | 0.00 | 65 | 1020.1 |
| 20260503072007 | 64 | 344 | 0.0 | 2.0 | 0.00 | 0.00 | 0.00 | 65 | 1020.1 |
| 20260503071434 | 63 | 344 | 1.0 | 2.0 | 0.00 | 0.00 | 0.00 | 66 | 1020.0 |
| 20260503070951 | 63 | 48 | 0.0 | 2.0 | 0.00 | 0.00 | 0.00 | 67 | 1020.1 |
| 20260503070446 | 62 | 329 | 0.0 | 1.0 | 0.00 | 0.00 | 0.00 | 68 | 1020.1 |
| 20260503054936 | 56 | 328 | 1.0 | 2.0 | 0.00 | 0.00 | 0.00 | 75 | 1020.1 |
| 20260503054433 | 56 | 330 | 0.0 | 1.0 | 0.00 | 0.00 | 0.00 | 75 | 1020.1 |
| 20260503053949 | 56 | 330 | 0.0 | 3.0 | 0.00 | 0.00 | 0.00 | 76 | 1020.1 |
| 20260503053436 | 55 | 329 | 0.0 | 3.0 | 0.00 | 0.00 | 0.00 | 77 | 1020.1 |
| 20260503052953 | 55 | 273 | 0.0 | 0.0 | 0.00 | 0.00 | 0.00 | 78 | 1020.1 |
| 20260503052440 | 55 | 270 | 0.0 | 0.0 | 0.00 | 0.00 | 0.00 | 78 | 1020.1 |
| 20260503051934 | 54 | 269 | 0.0 | 1.0 | 0.00 | 0.00 | 0.00 | 78 | 1020.1 |
| 20260503051451 | 54 | 269 | 0.0 | 2.0 | 0.00 | 0.00 | 0.00 | 78 | 1020.1 |
| 20260503050938 | 53 | 268 | 0.0 | 2.0 | 0.00 | 0.00 | 0.00 | 78 | 1020.0 |
| 20260503050456 | 53 | 213 | 0.0 | 2.0 | 0.00 | 0.00 | 0.00 | 79 | 1020.0 |
| 20260503045941 | 52 | 213 | 0.0 | 1.0 | 0.00 | 0.00 | 0.00 | 79 | 1020.0 |
| 20260503045437 | 52 | 213 | 0.0 | 2.0 | 0.00 | 0.00 | 0.00 | 79 | 1019.9 |
| 20260503044945 | 52 | 213 | 1.0 | 2.0 | 0.00 | 0.00 | 0.00 | 79 | 1019.9 |
| 20260503044439 | 52 | 196 | 1.0 | 2.0 | 0.00 | 0.00 | 0.00 | 80 | 1019.9 |
| 20260503043928 | 51 | 194 | 0.0 | 1.0 | 0.00 | 0.00 | 0.00 | 79 | 1019.9 |
| 20260503043443 | 51 | 193 | 0.0 | 0.0 | 0.00 | 0.00 | 0.00 | 79 | 1019.9 |
| 20260503042959 | 51 | 193 | 0.0 | 0.0 | 0.00 | 0.00 | 0.00 | 79 | 1019.9 |
| 20260503042434 | 51 | 193 | 0.0 | 0.0 | 0.00 | 0.00 | 0.00 | 79 | 1019.9 |
| 20260503041948 | 51 | 193 | 0.0 | 0.0 | 0.00 | 0.00 | 0.00 | 79 | 1019.9 |
| 20260503041437 | 51 | 193 | 0.0 | 0.0 | 0.00 | 0.00 | 0.00 | 79 | 1019.9 |
| 20260503040949 | 51 | 193 | 0.0 | 0.0 | 0.00 | 0.00 | 0.00 | 78 | 1020.0 |
| 20260503040437 | 51 | 193 | 0.0 | 0.0 | 0.00 | 0.00 | 0.00 | 77 | 1019.9 |
| 20260503035932 | 52 | 193 | 0.0 | 0.0 | 0.00 | 0.00 | 0.00 | 76 | 1019.9 |
| 20260503035448 | 52 | 193 | 0.0 | 0.0 | 0.00 | 0.00 | 0.00 | 76 | 1019.9 |
| 20260503034936 | 52 | 193 | 0.0 | 0.0 | 0.00 | 0.00 | 0.00 | 75 | 1019.9 |
| 20260503034433 | 52 | 193 | 0.0 | 0.0 | 0.00 | 0.00 | 0.00 | 76 | 1019.9 |
| 20260503033940 | 52 | 193 | 0.0 | 0.0 | 0.00 | 0.00 | 0.00 | 76 | 1019.8 |
| 20260503033435 | 52 | 193 | 0.0 | 0.0 | 0.00 | 0.00 | 0.00 | 75 | 1019.9 |
| 20260503032951 | 52 | 193 | 0.0 | 0.0 | 0.00 | 0.00 | 0.00 | 75 | 1019.9 |
| 20260503032438 | 53 | 193 | 0.0 | 2.0 | 0.00 | 0.00 | 0.00 | 75 | 1019.8 |
| 20260503031934 | 53 | 193 | 0.0 | 2.0 | 0.00 | 0.00 | 0.00 | 75 | 1019.8 |
| 20260503031444 | 53 | 193 | 1.0 | 2.0 | 0.00 | 0.00 | 0.00 | 75 | 1019.9 |
| 20260503030959 | 53 | 193 | 0.0 | 0.0 | 0.00 | 0.00 | 0.00 | 75 | 1019.9 |
| 20260503030435 | 53 | 193 | 0.0 | 1.0 | 0.00 | 0.00 | 0.00 | 74 | 1019.9 |
| 20260503025949 | 53 | 193 | 0.0 | 2.0 | 0.00 | 0.00 | 0.00 | 74 | 1019.9 |
| 20260503025437 | 53 | 193 | 1.0 | 2.0 | 0.00 | 0.00 | 0.00 | 74 | 1019.9 |
| 20260503024934 | 53 | 193 | 1.0 | 2.0 | 0.00 | 0.00 | 0.00 | 74 | 1020.0 |
| 20260503024509 | 53 | 193 | 0.0 | 2.0 | 0.00 | 0.00 | 0.00 | 74 | 1020.0 |
| 20260503023937 | 53 | 193 | 1.0 | 2.0 | 0.00 | 0.00 | 0.00 | 73 | 1020.0 |
| 20260503023453 | 53 | 193 | 0.0 | 0.0 | 0.00 | 0.00 | 0.00 | 73 | 1020.1 |
| 20260503022942 | 54 | 193 | 0.0 | 0.0 | 0.00 | 0.00 | 0.00 | 73 | 1020.1 |
| 20260503022438 | 54 | 193 | 0.0 | 2.0 | 0.00 | 0.00 | 0.00 | 73 | 1020.1 |
| 20260503021946 | 54 | 193 | 0.0 | 2.0 | 0.00 | 0.00 | 0.00 | 72 | 1020.1 |
| 20260503021503 | 54 | 193 | 0.0 | 0.0 | 0.00 | 0.00 | 0.00 | 72 | 1020.1 |
| 20260503020936 | 54 | 193 | 0.0 | 0.0 | 0.00 | 0.00 | 0.00 | 72 | 1020.0 |
| 20260503020434 | 54 | 193 | 0.0 | 0.0 | 0.00 | 0.00 | 0.00 | 71 | 1020.0 |
| 20260503015949 | 55 | 193 | 0.0 | 0.0 | 0.00 | 0.00 | 0.00 | 71 | 1020.0 |
| 20260503015436 | 55 | 193 | 0.0 | 0.0 | 0.00 | 0.00 | 0.00 | 71 | 1020.1 |
| 20260503014950 | 55 | 193 | 0.0 | 0.0 | 0.00 | 0.00 | 0.00 | 70 | 1020.0 |
| 20260503014440 | 55 | 193 | 0.0 | 0.0 | 0.00 | 0.00 | 0.00 | 70 | 1020.0 |
| 20260503013934 | 55 | 193 | 0.0 | 0.0 | 0.00 | 0.00 | 0.00 | 69 | 1020.0 |
| 20260503013442 | 55 | 193 | 0.0 | 0.0 | 0.00 | 0.00 | 0.00 | 69 | 1020.0 |
| 20260503012936 | 55 | 193 | 0.0 | 0.0 | 0.00 | 0.00 | 0.00 | 68 | 1020.1 |
| 20260503012453 | 56 | 193 | 0.0 | 0.0 | 0.00 | 0.00 | 0.00 | 68 | 1020.0 |
| 20260503011942 | 56 | 193 | 0.0 | 0.0 | 0.00 | 0.00 | 0.00 | 68 | 1020.1 |
| 20260503011437 | 56 | 193 | 0.0 | 0.0 | 0.00 | 0.00 | 0.00 | 68 | 1020.1 |
| 20260503011012 | 56 | 193 | 0.0 | 0.0 | 0.00 | 0.00 | 0.00 | 68 | 1020.2 |
| 20260503010440 | 56 | 193 | 0.0 | 0.0 | 0.00 | 0.00 | 0.00 | 67 | 1020.2 |
| 20260503005935 | 56 | 193 | 0.0 | 0.0 | 0.00 | 0.00 | 0.00 | 67 | 1020.3 |
| 20260503005444 | 56 | 193 | 0.0 | 0.0 | 0.00 | 0.00 | 0.00 | 66 | 1020.3 |
| 20260503004940 | 57 | 193 | 0.0 | 0.0 | 0.00 | 0.00 | 0.00 | 66 | 1020.3 |
| 20260503004456 | 57 | 193 | 0.0 | 0.0 | 0.00 | 0.00 | 0.00 | 66 | 1020.4 |
| 20260503004006 | 57 | 193 | 0.0 | 0.0 | 0.00 | 0.00 | 0.00 | 65 | 1020.4 |
| 20260503003435 | 57 | 193 | 0.0 | 0.0 | 0.00 | 0.00 | 0.00 | 65 | 1020.4 |
| 20260503002928 | 57 | 193 | 0.0 | 0.0 | 0.00 | 0.00 | 0.00 | 65 | 1020.4 |
| 20260503002502 | 57 | 193 | 0.0 | 0.0 | 0.00 | 0.00 | 0.00 | 65 | 1020.4 |
| 20260503001931 | 58 | 193 | 0.0 | 0.0 | 0.00 | 0.00 | 0.00 | 64 | 1020.4 |
| 20260503001445 | 58 | 193 | 0.0 | 0.0 | 0.00 | 0.00 | 0.00 | 64 | 1020.5 |
| 20260503000938 | 58 | 193 | 0.0 | 0.0 | 0.00 | 0.00 | 0.00 | 64 | 1020.5 |
| 20260503000454 | 58 | 193 | 0.0 | 0.0 | 0.00 | 0.00 | 0.00 | 63 | 1020.5 |